Tracking 31028 objects as of 17-Jul-2025
HD Live streaming from Space Station
objects crossing your sky now

STARLINK-1669

Track STARLINK-1669 now!
10-day predictions
STARLINK-1669 is classified as:


NORAD ID: 47624
Int'l Code: 2021-012E
Perigee: 539.5 km
Apogee: 539.8 km
Inclination: 53.1 °
Period: 95.3 minutes
Semi major axis: 6910 km
RCS: Unknown
Launch date: February 16, 2021
Source: United States (US)
Launch site: AIR FORCE EASTERN TEST RANGE (AFETR)
Your satellite tracking list
Your tracking list is empty




NASA's NSSDC Master Catalog

Two Line Element Set (TLE):
1 47624U 21012E   25198.25002315  .00058570  00000-0  34356-2 0  9990
2 47624  53.0548  28.5144 0000244 337.0131  20.1103 15.11216814244267
Source of the keplerian elements: AFSPC